Location: Unspecified
(52.1971°N, 0.0000°E)
Time: 05:23:40
(UTC+00:00)

ISS - Pass Details

Date: 26 May 2019
Orbit: 407 x 418 km, 51.6° (Epoch: 20 June)

Event Time Altitude Azimuth Distance (km) Brightness Sun altitude
Rises 22:07:05 0° 280° (W) 2,359 0.6 -12.8°
Reaches altitude 10° 22:09:11 10° 276° (W) 1,497 -0.5 -12.9°
Maximum altitude 22:12:30 59° 197° (SSW) 490 -3.7 -13.1°
Enters shadow 22:14:33 21° 123° (ESE) 1,006 -2.3 -13.3°
